COSMOS 2361 1 25590U 98076A 10074.53444719 .00000047 00000-0 34053-4 0 2926 2 25590 82.9290 274.6015 0032951 51.5975 308.8134 13.72716010562255 COSMOS 2378 1 26818U 01023A 10075.10535629 .00000037 00000-0 23862-4 0 2791 2 26818 82.9270 300.5663 0033875 16.5917 343.6350 13.73742185439666 COSMOS 2389 1 27436U 02026A 10074.44869930 .00000058 00000-0 44910-4 0 162 2 27436 82.9451 241.9784 0044957 265.3182 94.2844 13.74740214391247 COSMOS 2398 1 27818U 03023A 10074.88979185 .00000025 00000-0 10850-4 0 8669 2 27818 82.9495 188.7683 0029911 238.9355 120.8864 13.71962703339501 COSMOS 2407 1 28380U 04028A 10074.26380413 .00000009 00000-0 -57672-5 0 6858 2 28380 82.9622 150.2576 0037904 295.1319 64.5909 13.75850663283461 COSMOS 2414 1 28521U 05002A 10074.92182317 .00000048 00000-0 27448-4 0 6134 2 28521 82.9477 211.7742 0039845 333.4081 26.5036 13.87355889260773 COSMOS 2429 1 32052U 07038A 10074.81943692 .00000138 00000-0 12873-3 0 7932 2 32052 82.9752 259.9024 0036963 249.5408 110.1777 13.74701428125882 COSMOS 2454 1 35635U 09039A 10074.37057053 .00000138 00000-0 10000-3 0 2275 2 35635 82.9548 206.8916 0018847 326.9675 33.0292 13.89389680 32939